Location: Newark
(13.6797°N, 8.5297°E)
Time: 18:39:59
(UTC+00:00)

A-11 Canister half - Pass Details

Date: 20 January 2020
Orbit: 1517 x 1683 km, 47.2° (Epoch: 26 February)

Event Time Altitude Azimuth Distance (km) Brightness Sun altitude
Rises 22:00:16 0° 223° (SW) 4,816 11.9 -66.0°
Enters shadow 22:02:19 - 223° (SW) 4,159 11.5 -66.5°
Reaches altitude 10° 22:03:24 10° 223° (SW) 3,808 - -66.8°
Maximum altitude 22:13:04 84° 311° (NW) 1,567 - -69.0°
Drops below altitude 10° 22:22:26 10° 40° (NE) 3,693 - -71.1°
Sets 22:25:27 0° 41° (NE) 4,665 - -71.8°
